Flag for India Weather past 2 weeks in Firozpur, Punjab, India

Now
75 °F

Passing clouds.


Feels Like: 78 °F
Forecast: 68 / 90 °F
Wind: 7 mph from East

Location: Lahore Airport


UV Index: 7 (High)

Visibility: 4 mi


Pressure: 29.80 "Hg

Humidity: 54%

Dew point: 57 °F

Location of FirozpurLocation

Historic Weather in Firozpur

°F

Firozpur temperature yesterday

Maximum temperature yesterday: 93 °F (at 1:55 PM)
Minimum temperature yesterday: 70 °F (at 4:25 AM)
Average temperature yesterday: 81 °F

Past Weeks' High & Low Weather Summary

 TemperatureHumidityPressure
High95 °F (Apr 12, 3:30 PM)94% (Apr 2, 8:55 PM)30.01 "Hg (Apr 2, 8:55 PM)
Low59 °F (Apr 3, 2:55 AM)22% (Apr 10, 5:25 PM)29.74 "Hg (Apr 12, 4:00 PM)
Average76 °F54%29.87 "Hg
* Reported Apr 2 8:55 PM — Apr 17 9:25 PM, Firozpur, Weather by CustomWeather, © 2014

Note: Actual official high and low records may vary slightly from our data, if they occured in-between our weather recording intervals... More about our weather records

Advertising

Historic Weather Conditions — Data for Previous 24 hours

 ConditionsComfort  
Time TempWeatherWind HumidityBarometerVisibility
9:25 PM
Apr 17
75 °FPassing clouds.5 mph54%29.80 "Hg4 mi
8:55 PM75 °FPassing clouds.6 mph54%29.80 "Hg5 mi
8:25 PM75 °FPassing clouds.6 mph54%29.77 "Hg5 mi
8:00 PM75 °FPassing clouds.5 mph54%29.77 "Hg5 mi
7:30 PM75 °FPassing clouds.3 mph54%29.77 "Hg5 mi
6:55 PM77 °FScattered clouds.No wind54%29.77 "Hg5 mi
6:25 PM77 °FScattered clouds.No wind54%29.77 "Hg5 mi
6:00 PM77 °FScattered clouds.3 mph54%29.74 "Hg5 mi
5:30 PM79 °FScattered clouds.3 mph48%29.77 "Hg5 mi
4:55 PM79 °FScattered clouds.3 mph48%29.77 "Hg5 mi
4:25 PM79 °FScattered clouds.No wind48%29.77 "Hg5 mi
4:00 PM79 °FScattered clouds.3 mph51%29.77 "Hg5 mi
3:30 PM79 °FPartly sunny.No wind51%29.77 "Hg5 mi
3:00 PM79 °FScattered clouds.5 mph51%29.80 "Hg5 mi
2:30 PM79 °FScattered clouds.8 mph51%29.80 "Hg5 mi
2:00 PM77 °FScattered clouds.3 mph51%29.80 "Hg5 mi
1:30 PM75 °FScattered clouds.6 mph57%29.83 "Hg5 mi
12:55 PM73 °FScattered clouds.12 mph61%29.80 "Hg5 mi
12:25 PM73 °FScattered clouds.9 mph61%29.83 "Hg5 mi
11:55 AM72 °FScattered clouds.10 mph65%29.83 "Hg5 mi
11:25 AM70 °FScattered clouds.7 mph69%29.83 "Hg4 mi
10:55 AM70 °FScattered clouds.6 mph69%29.83 "Hg4 mi
10:30 AM68 °FRain. Broken clouds.6 mph73%29.83 "Hg4 mi
10:00 AM66 °FScattered clouds.9 mph78%29.83 "Hg4 mi
9:25 AM64 °FThunderstorms. Broken clouds.7 mph83%29.80 "Hg2 mi
8:25 AM63 °FThunderstorms. Broken clouds.15 mph88%29.80 "Hg2 mi
7:55 AM63 °FThunderstorms. More clouds than sun.9 mph88%N/A2 mi
7:25 AM63 °FThunderstorms. More clouds than sun.14 mph88%29.86 "Hg2 mi
6:55 AM63 °FThunderstorms. More clouds than sun.9 mph88%29.83 "Hg2 mi
6:25 AM63 °FThunderstorms. More clouds than sun.13 mph88%N/A2 mi
5:25 AM63 °FRain. Mostly cloudy.22 mph83%29.86 "Hg2 mi
4:55 AM63 °FThunderstorms. Mostly cloudy.17 mph83%29.86 "Hg2 mi
4:25 AM63 °FThunderstorms. Mostly cloudy.15 mph83%29.86 "Hg2 mi
3:55 AM63 °FStrong thunderstorms. Mostly cloudy.24 mph83%29.83 "Hg2 mi
3:25 AM64 °FThunderstorms. Mostly cloudy.9 mph83%29.77 "Hg2 mi
2:55 AM64 °FThunderstorms. Partly cloudy.9 mph83%29.74 "Hg2 mi
2:25 AM64 °FThunderstorms. Partly cloudy.9 mph83%29.74 "Hg2 mi
1:55 AM66 °FPassing clouds.7 mph73%29.77 "Hg2 mi
1:25 AM66 °FPassing clouds.7 mph73%29.77 "Hg2 mi
11:55 PM
Apr 16
70 °FPassing clouds.6 mph64%29.77 "Hg3 mi
11:25 PM72 °FPassing clouds.6 mph61%29.80 "Hg4 mi
10:55 PM72 °FPassing clouds.5 mph61%29.80 "Hg4 mi
Weather by CustomWeather, © 2014

See weather overview